Theta_e
303 304 305 303 304 305 300 300 296 300 301 305 307 311 316 320 328 329 329 329 330 330 334 342 342 347 353 355 358 357 354 354 354 355 355 354 349 346 345 343 341 337 333 331
297 302 301 301 304 305 304 304 303 303 303 316 314 324 323 323 328 328 330 332 334 334 333 341 343 348 349 354 356 356 353 353 354 354 353 350 346 344 342 341 337 333 329 328
291 300 299 296 302 303 304 306 303 300 305 318 320 321 320 322 323 321 332 338 337 337 334 333 348 351 350 352 356 354 353 353 354 354 350 347 344 341 339 336 333 330 328 325
293 295 288 299 306 308 307 309 312 315 316 318 322 319 319 321 321 321 319 338 344 346 347 335 343 352 353 354 355 354 354 353 355 351 347 344 341 338 336 332 328 328 327 324
291 291 296 302 306 308 308 308 321 319 319 316 321 320 321 323 323 323 323 342 344 348 349 352 344 353 353 355 355 354 354 354 352 348 344 341 338 335 331 328 327 326 327 321
295 292 291 302 311 313 312 301 321 323 319 318 319 311 316 327 325 324 337 343 344 346 349 350 351 354 353 352 355 354 355 353 350 346 343 339 337 334 329 327 326 327 325 324
300 298 302 311 317 317 301 307 320 323 321 319 315 318 323 329 334 342 342 343 345 346 345 346 349 351 350 350 353 355 353 351 347 344 341 339 336 332 328 325 324 323 323 323
300 296 296 315 314 308 310 315 316 321 321 319 317 320 321 324 325 328 340 342 343 341 342 345 346 345 348 349 351 352 349 346 343 341 341 337 332 329 326 324 324 322 320 320
303 302 309 311 310 312 313 313 315 313 321 320 317 316 319 319 320 322 326 340 340 339 339 341 343 344 344 344 345 345 344 343 342 340 339 335 330 326 323 323 323 322 320 319
303 307 308 310 312 312 314 311 312 313 314 318 313 313 312 314 316 319 322 338 340 338 337 337 340 341 340 344 344 344 343 341 339 336 334 332 327 326 321 321 320 321 319 317
303 306 310 311 311 312 312 313 313 312 312 313 315 313 312 312 313 316 321 325 339 337 336 335 337 338 339 340 342 341 342 340 336 333 329 326 326 322 321 324 321 321 318 318
301 307 307 307 309 310 308 310 311 310 309 310 311 310 311 313 313 313 321 324 330 339 338 337 337 336 338 340 342 342 339 336 330 328 326 325 324 319 316 319 316 313 311 316
305 309 308 309 310 311 308 309 309 308 308 307 309 310 310 311 312 315 317 323 325 324 325 340 337 335 340 338 341 339 335 333 329 327 327 325 324 319 315 313 310 306 307 308
311 310 307 308 306 309 310 311 311 309 308 309 309 311 310 309 313 314 316 324 330 327 326 338 337 334 336 339 338 336 334 323 329 328 328 327 326 323 320 314 313 311 306 304
309 309 307 307 309 310 311 311 309 308 310 310 311 310 311 310 310 312 319 327 328 327 328 334 336 334 338 338 336 335 333 332 331 331 330 328 329 326 322 316 315 315 311 307
310 309 308 309 310 312 313 313 311 312 314 314 314 310 314 314 311 314 316 328 326 323 325 328 331 337 338 339 337 335 334 330 330 332 332 331 330 328 322 320 318 317 314 312
308 306 306 310 311 311 310 311 312 312 314 314 317 318 320 319 319 315 316 327 327 328 331 333 336 342 338 338 337 336 335 333 332 333 332 330 330 329 324 322 319 317 317 315
311 313 312 311 310 310 310 312 312 312 311 316 316 315 313 314 315 321 325 327 326 328 333 337 338 340 337 337 337 336 336 335 333 332 332 330 327 325 323 320 318 316 316 314
313 311 311 312 312 310 309 309 310 311 312 314 315 314 312 312 314 314 319 325 322 324 333 337 331 334 338 337 336 336 335 335 333 331 327 322 320 321 319 319 319 319 318 314
311 312 312 311 312 311 310 310 310 309 310 312 314 314 311 309 313 314 314 313 327 329 331 328 331 335 338 336 335 336 334 331 325 321 318 317 316 316 317 314 318 318 319 319
309 311 311 310 310 310 310 309 308 307 308 309 310 312 311 311 312 313 309 315 325 321 322 323 325 329 335 334 334 332 325 321 320 317 315 315 316 317 318 319 320 319 319 319
306 306 308 309 310 309 309 308 307 307 307 308 308 312 315 315 314 315 322 323 326 315 320 322 323 324 325 331 331 326 322 318 317 318 317 317 318 317 317 318 318 319 319 318
305 306 306 306 308 307 306 305 305 306 307 307 308 312 315 317 319 318 321 323 324 315 319 319 318 317 319 325 327 323 320 319 318 318 318 319 319 318 318 318 319 319 318 319
306 306 306 307 306 305 303 304 306 307 308 309 311 314 314 319 321 323 322 316 313 317 319 317 317 316 317 324 323 321 319 319 319 320 320 312 318 317 317 317 317 316 317 316
306 307 307 306 304 304 305 306 306 306 307 309 312 315 325 325 325 323 323 319 313 319 320 316 317 317 321 320 320 319 319 319 319 318 317 316 315 315 316 317 318 319 319 319
306 306 306 306 306 306 306 307 306 308 311 312 320 323 324 326 324 323 323 319 321 316 321 322 321 323 322 321 321 320 319 318 315 315 315 315 315 316 317 319 319 317 317 317
311 306 308 307 309 309 309 309 310 313 317 321 322 324 324 325 323 323 318 322 321 322 322 322 322 319 320 321 321 320 319 319 316 319 319 321 321 319 319 317 316 317 319 320
Wind_Speed
9 9 10 11 14 13 8 8 3 11 10 13 8 4 9 9 9 9 9 10 9 7 5 14 16 17 18 19 19 19 19 17 16 14 12 12 14 14 13 13 11 10 8 7
6 9 11 12 10 9 9 7 8 9 15 7 10 25 26 26 9 8 7 6 7 7 7 10 17 16 17 19 18 18 18 17 17 16 12 14 14 13 13 12 12 9 8 7
6 9 10 8 9 9 9 8 5 6 2 7 18 17 15 14 14 21 30 13 10 10 6 5 12 17 18 17 17 18 16 15 16 16 17 16 14 13 12 12 11 9 9 8
6 5 6 11 9 10 10 6 7 8 4 7 10 10 9 11 18 25 36 29 16 14 17 8 5 12 16 16 17 15 14 14 15 17 17 15 15 12 13 11 10 10 9 8
4 5 8 9 9 10 4 6 7 7 5 3 6 4 7 8 11 10 16 23 13 13 16 15 8 13 17 17 18 16 14 14 15 16 17 17 16 15 13 12 9 8 9 9
2 4 7 8 14 9 6 1 6 12 9 7 7 7 4 11 6 12 11 8 11 13 15 18 22 15 16 16 14 15 14 15 15 15 17 15 14 15 12 11 11 8 8 10
4 4 5 5 9 9 3 5 7 10 6 3 3 4 2 1 1 1 3 5 8 9 10 12 18 3 11 11 11 10 14 16 16 16 16 13 10 9 9 10 8 6 7 7
2 3 6 9 8 7 8 7 8 3 6 5 4 5 6 8 6 7 6 6 7 7 8 8 13 11 7 4 6 13 14 15 16 16 13 13 15 10 11 11 8 7 7 6
2 4 5 9 7 3 3 2 5 9 3 5 5 6 6 5 6 6 8 2 4 5 6 5 7 8 7 4 7 12 14 13 13 12 11 13 15 13 11 9 8 7 8 8
5 7 8 9 6 11 8 6 7 5 7 8 4 6 5 5 6 6 4 6 0 2 5 6 5 6 2 3 4 8 11 12 11 13 12 11 9 10 9 8 7 8 9 8
7 7 7 7 8 7 7 7 6 5 6 5 6 6 4 2 3 6 6 4 3 4 3 3 1 4 1 3 5 6 8 8 11 9 13 12 10 10 10 8 9 9 9 9
10 8 3 3 8 10 11 9 5 4 4 6 5 6 5 5 4 3 7 5 3 6 7 7 6 5 8 5 6 8 7 8 8 10 9 8 9 5 4 7 13 13 12 9
4 6 6 8 8 7 9 8 7 7 6 4 6 5 6 6 5 7 8 9 7 8 7 6 7 6 6 8 5 5 9 9 8 9 9 10 9 10 9 2 4 9 13 15
13 13 13 8 12 9 8 7 6 6 5 3 4 4 4 7 11 5 8 10 8 7 8 7 9 8 7 10 7 7 9 11 10 10 10 9 9 9 9 8 10 6 2 6
5 7 10 10 3 7 7 7 8 7 7 8 5 5 6 7 9 10 8 8 7 5 6 4 8 8 9 9 11 10 9 9 9 9 8 8 8 9 9 7 5 5 4 5
9 9 11 5 3 5 7 11 10 10 11 14 15 7 7 8 8 9 9 8 3 4 7 7 7 9 13 11 10 10 10 13 11 9 7 8 7 5 8 8 8 7 7 6
10 8 9 2 2 5 6 5 5 6 10 12 13 15 13 11 11 10 11 7 3 5 6 7 11 6 10 14 15 10 9 10 14 9 8 7 7 8 9 8 9 9 9 11
6 6 8 7 5 5 5 6 5 7 8 8 10 10 11 12 11 18 9 6 5 6 6 8 8 6 12 14 14 11 11 10 10 9 9 6 7 6 8 6 8 8 7 9
14 12 7 4 3 4 2 2 4 6 8 6 9 10 10 10 10 14 18 12 6 6 5 5 8 5 9 12 13 8 7 8 9 7 7 9 7 6 6 5 6 6 7 6
4 7 9 11 13 4 3 4 6 6 7 11 8 7 10 11 7 12 18 21 12 1 5 6 8 7 2 11 13 8 9 9 9 7 7 8 9 8 7 8 9 9 8 7
17 16 9 5 8 8 6 4 5 8 12 10 9 10 9 7 11 21 27 18 5 3 4 8 5 5 1 7 8 8 9 9 9 10 10 9 10 8 6 6 6 5 6 7
16 15 15 15 9 9 7 6 7 11 13 13 12 13 9 7 6 17 17 6 0 4 4 4 5 7 5 9 7 9 10 11 10 9 9 8 8 7 6 6 5 4 7 8
18 19 20 21 16 9 7 8 8 10 12 13 15 13 10 9 9 10 8 4 1 3 4 5 10 14 13 6 8 11 11 12 12 10 10 9 8 8 7 7 7 9 9 9
11 11 11 12 9 10 12 9 10 13 12 15 14 12 10 8 7 1 3 5 5 7 1 1 9 13 2 4 7 11 11 11 12 10 9 8 6 6 7 7 8 9 9 11
10 9 7 7 8 8 9 11 11 12 14 15 12 11 5 5 4 4 3 5 6 5 3 10 8 11 7 8 9 7 10 7 8 6 4 5 5 6 7 8 8 9 6 6
8 6 5 8 8 8 8 8 8 9 8 6 4 2 1 1 5 6 4 5 3 1 2 5 2 2 4 6 8 8 7 7 6 4 5 5 5 8 7 6 6 4 4 3
5 6 6 6 7 8 9 9 7 9 6 4 2 3 3 4 4 5 7 5 3 3 2 3 3 2 1 3 4 5 6 6 8 7 8 9 10 7 5 4 2 1 0 6
Wind_Direction
282 314 329 319 310 310 311 288 315 299 322 305 341 162 147 128 104 78 44 13 19 10 185 179 178 176 172 173 172 171 173 175 183 181 179 155 151 153 149 150 150 140 138 148
326 320 314 310 307 296 289 291 297 297 292 13 36 51 42 11 37 98 88 65 358 357 354 208 178 171 172 173 173 173 178 179 173 170 159 153 152 152 151 150 140 140 146 146
293 312 315 324 291 306 295 310 325 297 310 314 47 44 30 36 31 20 348 346 358 328 312 342 184 166 171 168 168 176 178 177 173 164 156 153 148 146 150 147 145 150 149 154
249 295 285 252 275 293 292 316 41 75 54 56 84 90 59 36 48 22 354 304 340 357 352 327 207 182 158 162 170 175 180 176 165 157 150 143 142 155 150 150 154 157 161 160
193 228 263 299 281 336 333 359 87 95 107 107 153 77 7 354 67 65 314 318 339 344 347 347 297 177 174 164 170 170 173 169 158 148 144 149 156 162 149 150 151 163 165 147
252 226 253 259 290 290 282 253 100 82 59 26 8 52 253 225 179 199 204 276 343 350 350 355 339 160 169 173 166 172 156 147 144 147 148 155 166 160 147 147 158 163 167 160
254 263 295 319 355 335 50 325 358 97 115 60 73 179 283 216 35 43 76 357 358 3 5 352 344 309 158 165 171 149 144 140 139 145 152 151 149 135 132 136 149 165 168 150
309 332 295 17 22 79 215 306 337 318 127 101 330 36 68 27 43 358 6 18 17 360 8 349 7 4 2 77 115 127 133 140 144 152 154 146 139 144 139 137 163 165 166 160
323 260 320 23 1 37 124 119 11 15 340 82 57 22 39 8 33 21 335 15 31 0 349 14 22 13 32 59 118 138 143 156 150 147 149 149 147 149 149 152 173 174 175 181
12 328 334 324 26 22 24 54 22 13 12 356 7 20 16 28 0 352 3 317 122 355 345 347 57 55 353 89 134 154 149 149 146 146 149 146 143 152 151 163 179 178 183 181
288 303 329 338 345 343 340 348 352 352 340 334 351 339 345 343 348 323 307 327 242 242 240 243 309 119 160 158 165 171 178 154 157 151 150 152 155 165 157 188 193 186 187 179
271 270 272 316 329 332 333 317 273 274 306 327 331 318 308 287 268 282 290 282 260 245 217 218 187 228 154 202 186 186 160 161 152 147 148 159 152 140 80 196 205 207 181 185
258 307 292 281 281 289 295 299 321 326 309 302 303 313 323 278 243 250 269 268 251 258 266 204 189 209 199 157 198 192 164 158 154 151 156 154 164 182 174 78 75 186 179 200
297 305 305 312 293 272 263 273 289 309 306 322 324 336 349 337 294 256 270 248 244 237 245 226 195 205 202 149 168 172 173 163 159 159 163 173 184 182 184 183 175 157 291 150
327 313 288 272 3 7 359 353 346 340 331 318 300 298 300 300 311 282 274 274 249 258 268 251 195 207 176 179 156 173 170 168 169 168 179 188 180 176 183 161 159 148 106 65
273 267 283 264 13 12 25 31 16 5 352 357 319 294 316 292 288 287 281 262 238 269 281 280 264 199 178 162 174 186 179 179 178 178 175 184 176 176 173 158 171 169 166 170
264 258 260 151 70 63 55 31 18 353 349 357 348 342 336 337 319 300 293 258 260 269 264 275 278 233 177 158 197 189 182 182 184 178 183 183 192 192 170 174 182 186 187 178
290 59 72 79 63 62 30 7 345 357 348 338 334 335 337 336 322 311 264 273 299 315 303 282 271 226 185 181 182 186 178 183 184 182 183 177 179 171 149 145 179 183 191 184
56 22 47 77 103 84 48 351 344 333 324 320 323 321 326 316 317 322 328 312 294 288 302 339 328 296 173 183 182 178 178 161 179 175 140 130 110 102 97 112 115 110 103 121
16 110 73 11 346 332 1 0 7 347 319 318 314 316 302 305 295 317 333 321 296 35 19 350 325 331 138 163 169 175 167 152 140 137 131 124 122 126 135 138 118 103 93 83
355 331 295 216 207 276 300 308 317 307 302 308 313 293 279 324 333 348 316 288 266 0 315 302 309 308 84 138 153 147 138 131 140 140 142 143 139 143 147 123 116 122 142 182
290 285 287 284 248 240 265 270 285 291 296 298 293 280 279 279 265 249 250 269 348 342 339 323 307 302 299 195 153 149 146 142 146 145 140 142 146 134 129 135 146 192 220 225
280 280 267 252 254 242 252 270 296 285 278 276 270 270 266 274 265 266 268 206 98 22 28 325 312 293 261 245 173 151 149 149 153 153 151 152 150 155 165 172 215 203 210 231
287 275 272 240 201 248 279 277 268 260 260 262 257 255 258 258 273 250 118 108 111 86 316 350 10 351 170 151 169 147 149 161 159 155 149 142 155 158 175 197 221 230 236 226
277 284 272 249 238 240 250 253 253 257 258 261 263 263 253 281 202 160 132 114 146 151 222 67 35 14 53 80 89 98 110 123 110 103 127 160 186 184 206 211 226 233 208 195
273 263 253 234 235 237 239 237 247 252 248 251 248 150 275 8 111 125 122 127 149 215 156 118 127 60 64 83 97 105 116 132 144 174 170 181 205 225 216 212 194 177 196 181
239 232 259 240 234 226 232 238 244 254 226 232 163 158 143 127 142 122 127 143 173 224 149 178 192 204 311 129 126 144 160 168 191 203 214 226 204 202 196 207 248 226 180 120